Location: Nachod
(50.4170°N, 16.1670°E)
Time: 14:16:47
(UTC+02:00)

ISS - Pass Details

Date: 31 March 2019
Orbit: 408 x 410 km, 51.6° (Epoch: 24 April)

Event Time Altitude Azimuth Distance (km) Brightness Sun altitude
Rises 22:37:07 0° 286° (WNW) 2,338 0.9 -27.3°
Reaches altitude 10° 22:39:20 10° 276° (W) 1,474 -0.5 -27.6°
Enters shadow 22:39:41 12° 273° (W) 1,346 -0.7 -27.6°
